Weather in Les Menuires

France     45°19′24″N   6°32′14″E
temp.,
°C
wind,
m/s
gust,
m/s
humid.,
%
clouds,
%
prec.,
mm/h
press.,
hPa
HPBL,
m
1 december, wed
wed101:00−8ese129856 0.0 102428
04:00−7se129742 0.0 102034
07:00−6s129858 0.0 101836
10:00−2wsw119497 0.0 1013111
13:000sw229254 0.0 1009321
16:00−1w2299100 2.1 1006180
19:00−2nw2399100 8.1 1006205
22:00−3nw3499100 3.3 1006248
2 december, thu
thu201:00−4wnw2398100 4.7 1005264
04:00−5nw3396100 1.1 1005319
07:00−6nnw3498100 1.9 1004218
10:00−6nw3497100 0.7 1005343
13:00−5nw4493100 1.3 1004519
16:00−6nw3498100 1.8 1004329
19:00−8wnw5697100 5.8 1006577
22:00−10nw4697100 2.1 1010439
3 december, fri
fri301:00−14nnw2399100 2.9 101545
04:00−18ne22100100 0.3 102035
07:00−20ese129854 0.3 102412
10:00−12ne11755 0.0 102067
13:00−9nnw226345 0.0 1017240
16:00−11n018461 0.0 101911
19:00−12se225287 0.0 102215
22:00−8sse225598 0.0 101817
4 december, sat
sat401:00−4ssw1297100 2.4 101575
04:00−2wsw2299100 10.2 1011108
07:00−1wsw2299100 24.4 1009117
10:00−1w23100100 14.9 1008128
13:00−1w2399100 27.8 1006179
16:00−1wnw4599100 9.7 1005293
19:00−3wnw3498100 16.6 1007234
22:00−6wnw3498100 6.4 1012158
5 december, sun
sun501:00−10wnw2299100 7.7 101432
04:00−10wnw239999 0.4 101389
07:00−11w1198100 0.9 101229
10:00−9wnw1296100 2.1 1011166
13:00−8nw349297 3.7 1010599
16:00−9nw349898 0.8 1010261
19:00−11wnw1198100 1.6 101317
22:00−16se1299100 0.3 101813